Location: Betz
(49.1556°N, 2.9558°E)
Time: 01:37:29
(UTC+00:00)

Cosmos 1943 - Pass Details

Date: 18 September 2019
Orbit: 833 x 851 km, 71.0° (Epoch: 20 October)

Event Time Altitude Azimuth Distance (km) Brightness Sun altitude
Rises 21:14:05 0° 333° (NNW) 3,427 7.4 -29.9°
Reaches altitude 10° 21:16:36 10° 337° (NNW) 2,487 6.4 -30.2°
Enters shadow 21:21:14 50° 17° (NNE) 1,070 3.8 -30.7°
